K0PFX-8 Weather Reports


Display with metric or nautical units.
time (UTC)temp
F
wind
direction
speed
MPH
gust
MPH
rain 1hr
in
rain 24hr
in
rain mn
in
humidity
%
barometer
mb
20180722084906 72 287 2.0 3.0 0.00 0.00 0.00 88 1012.8
20180722083403 72 323 4.0 3.0 0.00 0.00 0.00 87 1012.8
20180722081905 73 316 4.0 5.0 0.00 0.00 0.00 86 1012.7
20180722080400 73 312 2.0 3.0 0.00 0.00 0.00 85 1012.6
20180722074902 73 315 4.0 0.0 0.00 0.00 0.00 85 1012.7
20180722073357 73 20 4.0 0.0 0.00 0.00 0.00 84 1012.8
20180722071859 73 301 3.0 3.0 0.00 0.00 0.00 83 1012.6
20180722070355 74 311 0.0 0.0 0.00 0.00 0.00 82 1012.7
20180722064856 74 293 3.0 2.0 0.00 0.00 0.00 81 1012.8
20180722063349 74 315 6.0 6.0 0.00 0.00 0.00 80 1012.9
20180722061851 74 304 4.0 5.0 0.00 0.00 0.00 80 1013.0
20180722060345 74 318 5.0 3.0 0.00 0.00 0.00 80 1013.2
20180722054846 74 302 5.0 7.0 0.00 0.00 0.00 79 1013.1
20180722053339 75 287 4.0 6.0 0.00 0.00 0.00 79 1013.1
20180722051840 75 294 2.0 3.0 0.00 0.00 0.00 78 1012.9
20180722050336 75 309 5.0 5.0 0.00 0.00 0.00 78 1013.0
20180722044837 75 300 3.0 4.0 0.00 0.00 0.00 77 1012.7
20180722043328 75 300 4.0 4.0 0.00 0.00 0.00 77 1012.7
20180722041830 76 291 4.0 3.0 0.00 0.00 0.00 75 1012.7
20180722040323 76 242 1.0 3.0 0.00 0.00 0.00 74 1012.7
20180722034823 76 284 2.0 3.0 0.00 0.00 0.00 73 1012.8
20180722033316 76 300 3.0 3.0 0.00 0.00 0.00 73 1012.9
20180722031817 76 307 0.0 0.0 0.00 0.00 0.00 73 1013.1
20180722030311 76 295 6.0 5.0 0.00 0.00 0.00 74 1013.0
20180722024812 76 308 3.0 2.0 0.00 0.00 0.00 73 1013.1
20180722023307 76 287 5.0 5.0 0.00 0.00 0.00 73 1013.0
20180722021755 76 297 5.0 0.0 0.00 0.00 0.00 72 1012.9
20180722020249 77 278 4.0 3.0 0.00 0.00 0.00 72 1012.9
20180722014728 77 276 1.0 0.0 0.00 0.00 0.00 72 1012.8
20180722013225 77 277 3.0 6.0 0.00 0.00 0.00 70 1012.9
20180722011723 77 304 3.0 4.0 0.00 0.00 0.00 70 1013.0
20180722010217 78 293 3.0 5.0 0.00 0.00 0.00 68 1012.9
20180722004718 78 51 6.0 6.0 0.00 0.00 0.00 66 1012.7
20180722003216 79 11 7.0 6.0 0.00 0.00 0.00 64 1012.7
20180722001716 79 347 10.0 5.0 0.00 0.00 0.00 64 1012.8
20180722000209 79 283 6.0 3.0 0.00 0.00 0.00 62 1012.8
20180721234711 80 41 7.0 7.0 0.00 0.00 0.00 64 1012.7
20180721231710 80 285 4.0 6.0 0.00 0.00 0.00 63 1012.7
20180721230204 80 32 6.0 11.0 0.00 0.00 0.00 60 1012.7
20180721224706 81 291 7.0 6.0 0.00 0.00 0.00 58 1012.9
20180721223159 81 295 6.0 10.0 0.00 0.00 0.00 59 1013.0
20180721221701 81 13 6.0 7.0 0.00 0.00 0.00 60 1013.1
20180721220150 81 323 4.0 9.0 0.00 0.00 0.00 58 1013.0
20180721214651 82 90 6.0 11.0 0.00 0.00 0.00 56 1013.0
20180721213149 82 28 11.0 16.0 0.00 0.00 0.00 54 1013.0
20180721211647 82 46 4.0 13.0 0.00 0.00 0.00 54 1012.8
20180721210141 82 359 5.0 5.0 0.00 0.00 0.00 57 1012.8
20180721204640 82 59 8.0 11.0 0.00 0.00 0.00 55 1012.8
20180721203134 83 315 9.0 4.0 0.00 0.00 0.00 54 1012.8
20180721201634 83 312 5.0 7.0 0.00 0.00 0.00 54 1012.9
20180721200126 83 25 6.0 4.0 0.00 0.00 0.00 56 1012.9
20180721194627 83 77 6.0 6.0 0.00 0.00 0.00 53 1012.8
20180721193124 82 305 6.0 5.0 0.00 0.00 0.00 55 1012.9
20180721191626 82 291 7.0 8.0 0.00 0.00 0.00 54 1012.8
20180721190120 82 298 7.0 8.0 0.00 0.00 0.00 53 1013.0
20180721184621 82 51 5.0 10.0 0.00 0.00 0.00 55 1012.8
20180721183116 82 294 9.0 9.0 0.00 0.00 0.00 53 1012.7
20180721181611 82 295 8.0 10.0 0.00 0.00 0.00 53 1012.8
20180721180106 82 7 8.0 15.0 0.00 0.00 0.00 53 1012.8
20180721174608 81 335 8.0 9.0 0.00 0.00 0.00 57 1012.9
20180721173103 80 336 7.0 3.0 0.00 0.00 0.00 55 1012.9
20180721171600 80 333 8.0 8.0 0.00 0.00 0.00 60 1012.9
20180721170054 80 318 7.0 5.0 0.00 0.00 0.00 60 1012.9
20180721164555 79 287 7.0 9.0 0.00 0.00 0.00 62 1012.9
20180721163049 79 354 7.0 4.0 0.00 0.00 0.00 62 1013.0
20180721161551 79 315 6.0 8.0 0.00 0.00 0.00 63 1013.0
20180721160050 79 314 8.0 9.0 0.00 0.00 0.00 61 1013.0
20180721154551 78 271 11.0 10.0 0.00 0.00 0.00 62 1013.1
20180721153047 78 290 7.0 10.0 0.00 0.00 0.00 62 1013.0
20180721151547 79 278 6.0 15.0 0.00 0.00 0.00 62 1012.8
20180721150044 78 307 4.0 6.0 0.00 0.00 0.00 65 1012.7
20180721144545 78 250 4.0 12.0 0.00 0.00 0.00 63 1012.8
20180721143040 78 315 7.0 6.0 0.00 0.00 0.00 63 1013.1
20180721141541 79 271 9.0 10.0 0.00 0.00 0.00 62 1013.1
20180721140034 79 284 10.0 9.0 0.00 0.00 0.00 61 1013.2
20180721134536 78 243 7.0 13.0 0.00 0.00 0.00 63 1013.3
20180721133028 77 359 5.0 7.0 0.00 0.00 0.00 67 1013.3
20180721131528 76 224 2.0 3.0 0.00 0.00 0.00 67 1013.4
20180721130022 76 266 7.0 7.0 0.00 0.00 0.00 69 1013.2
20180721124524 77 293 7.0 6.0 0.00 0.00 0.00 68 1013.2
20180721123018 76 281 5.0 3.0 0.00 0.00 0.00 72 1013.3
20180721121520 75 295 5.0 5.0 0.00 0.00 0.00 76 1013.0
20180721120014 73 222 6.0 3.0 0.00 0.00 0.00 81 1013.1
20180721114515 72 245 7.0 8.0 0.00 0.00 0.00 81 1012.9
20180721113011 72 291 5.0 5.0 0.00 0.00 0.00 80 1012.6
20180721111513 72 267 8.0 7.0 0.00 0.00 0.00 78 1012.7
20180721110006 72 278 5.0 7.0 0.00 0.00 0.00 77 1012.4
20180721104508 73 305 5.0 6.0 0.00 0.00 0.00 77 1012.4
20180721103002 73 294 6.0 5.0 0.00 0.00 0.00 76 1012.4
20180721101503 73 285 8.0 8.0 0.00 0.00 0.00 76 1012.4
20180721095956 73 277 7.0 9.0 0.00 0.00 0.00 76 1012.4
20180721094806 73 283 8.0 9.0 0.00 0.00 0.00 76 1012.2
20180721094458 73 283 8.0 9.0 0.00 0.00 0.00 76 1012.2
20180721092956 73 249 7.0 8.0 0.00 0.00 0.00 75 1012.0
20180721091457 74 311 7.0 3.0 0.00 0.00 0.00 74 1012.0